�������l�o���
Date,Time,MP-1(��Sv/h),MP-2(��Sv/h),MP-3(��Sv/h),MP-4(��Sv/h),MP-5(��Sv/h),MP-6(��Sv/h),MP-7(��Sv/h),MP-8(��Sv/h),����,����(m/s),���J
2016/12/02,00:00,1.079,1.802,1.207,2.040,1.395,0.573,1.033,0.957,��,9.6,��
2016/12/02,00:10,1.079,1.806,1.206,2.041,1.396,0.571,1.033,0.960,��,11.1,��
2016/12/02,00:20,1.079,1.803,1.209,2.039,1.397,0.575,1.032,0.959,���k��,9.5,��
2016/12/02,00:30,1.078,1.804,1.206,2.039,1.397,0.571,1.032,0.959,��,10.8,��
2016/12/02,00:40,1.076,1.805,1.206,2.038,1.393,0.573,1.031,0.959,��,7.8,��
2016/12/02,00:50,1.080,1.807,1.206,2.041,1.396,0.573,1.032,0.960,��,6.4,��
2016/12/02,01:00,1.077,1.806,1.206,2.038,1.394,0.571,1.032,0.958,��,5.0,��
2016/12/02,01:10,1.078,1.806,1.205,2.041,1.396,0.572,1.033,0.962,���k��,9.1,��
2016/12/02,01:20,1.079,1.804,1.206,2.042,1.394,0.573,1.032,0.959,���k��,7.4,��
2016/12/02,01:30,1.078,1.807,1.205,2.041,1.396,0.570,1.034,0.957,���k��,8.4,��
2016/12/02,01:40,1.075,1.805,1.206,2.044,1.398,0.572,1.033,0.957,���k��,6.6,��
2016/12/02,01:50,1.078,1.804,1.205,2.042,1.396,0.570,1.034,0.959,��,5.0,��
2016/12/02,02:00,1.078,1.805,1.206,2.040,1.396,0.571,1.033,0.958,��,3.5,��
2016/12/02,02:10,1.075,1.808,1.205,2.041,1.393,0.572,1.034,0.958,���k��,3.5,��
2016/12/02,02:20,1.078,1.807,1.207,2.042,1.394,0.571,1.034,0.958,���k��,6.1,��
2016/12/02,02:30,1.076,1.804,1.207,2.040,1.393,0.570,1.032,0.958,���k��,6.3,��
2016/12/02,02:40,1.076,1.805,1.206,2.042,1.394,0.569,1.035,0.956,���k��,6.5,��
2016/12/02,02:50,1.075,1.806,1.204,2.042,1.397,0.571,1.033,0.958,���k��,6.5,��
2016/12/02,03:00,1.074,1.808,1.205,2.042,1.397,0.572,1.031,0.958,���k��,7.9,��
2016/12/02,03:10,1.078,1.807,1.204,2.042,1.399,0.572,1.034,0.956,�k��,8.1,��
2016/12/02,03:20,1.075,1.804,1.205,2.043,1.396,0.571,1.032,0.957,���k��,3.4,��
2016/12/02,03:30,1.076,1.805,1.205,2.045,1.397,0.572,1.034,0.958,��,6.7,��
2016/12/02,03:40,1.076,1.808,1.207,2.040,1.397,0.569,1.036,0.958,��,7.5,��
2016/12/02,03:50,1.076,1.807,1.207,2.043,1.398,0.571,1.036,0.958,���k��,7.7,��
2016/12/02,04:00,1.075,1.808,1.208,2.043,1.399,0.570,1.033,0.957,�k��,5.5,��
2016/12/02,04:10,1.075,1.808,1.207,2.045,1.396,0.570,1.033,0.960,�k��,5.5,��
2016/12/02,04:20,1.075,1.806,1.206,2.047,1.395,0.570,1.035,0.958,�k��,6.4,��
2016/12/02,04:30,1.075,1.808,1.209,2.045,1.397,0.570,1.034,0.958,���k��,6.6,��
2016/12/02,04:40,1.076,1.806,1.207,2.044,1.397,0.570,1.033,0.960,���k��,5.1,��
2016/12/02,04:50,1.077,1.807,1.207,2.042,1.399,0.570,1.033,0.959,���k��,6.2,��
2016/12/02,05:00,1.074,1.808,1.206,2.042,1.398,0.570,1.033,0.958,�k��,7.1,��
2016/12/02,05:10,1.075,1.806,1.206,2.043,1.396,0.569,1.035,0.960,�k��,5.2,��
2016/12/02,05:20,1.076,1.810,1.205,2.044,1.395,0.571,1.036,0.958,�k��,5.8,��
2016/12/02,05:30,1.073,1.808,1.205,2.045,1.397,0.570,1.034,0.957,�k��,4.7,��
2016/12/02,05:40,1.075,1.807,1.206,2.044,1.397,0.570,1.032,0.958,�k,3.7,��
2016/12/02,05:50,1.075,1.807,1.205,2.044,1.397,0.569,1.034,0.958,�k�k��,2.2,��
2016/12/02,06:00,1.073,1.804,1.204,2.046,1.395,0.569,1.032,0.956,�k,2.2,��
2016/12/02,06:10,1.073,1.807,1.203,2.042,1.395,0.568,1.032,0.957,�k��,2.0,��
2016/12/02,06:20,1.071,1.809,1.203,2.041,1.399,0.569,1.035,0.958,�k�k��,3.0,��
2016/12/02,06:30,1.075,1.810,1.203,2.042,1.396,0.568,1.034,0.957,�k�k��,3.0,��
2016/12/02,06:40,1.074,1.809,1.207,2.042,1.397,0.569,1.032,0.958,�k�k��,3.3,��
2016/12/02,06:50,1.074,1.806,1.205,2.043,1.396,0.568,1.034,0.958,�k�k��,3.8,��
2016/12/02,07:00,1.075,1.810,1.203,2.043,1.397,0.568,1.034,0.958,�k��,3.0,��
2016/12/02,07:10,1.075,1.808,1.204,2.043,1.398,0.569,1.033,0.956,��,3.5,��
2016/12/02,07:20,1.075,1.813,1.208,2.046,1.397,0.569,1.033,0.957,��,3.6,��
2016/12/02,07:30,1.078,1.808,1.207,2.047,1.398,0.569,1.034,0.960,��,4.6,��
2016/12/02,07:40,1.076,1.812,1.207,2.045,1.396,0.567,1.033,0.959,���k��,2.9,��
2016/12/02,07:50,1.073,1.809,1.203,2.043,1.396,0.568,1.033,0.957,���쓌,3.7,��
2016/12/02,08:00,1.076,1.811,1.205,2.044,1.394,0.568,1.035,0.958,���쓌,5.3,��
2016/12/02,08:10,1.075,1.810,1.205,2.047,1.396,0.568,1.035,0.956,��,3.9,��
2016/12/02,08:20,1.078,1.812,1.203,2.044,1.398,0.569,1.033,0.959,��,4.2,��
2016/12/02,08:30,1.077,1.811,1.207,2.042,1.401,0.569,1.035,0.956,��,4.5,��
2016/12/02,08:40,1.078,1.812,1.208,2.046,1.397,0.568,1.034,0.959,���k��,4.7,��
2016/12/02,08:50,1.077,1.811,1.209,2.047,1.400,0.568,1.035,0.961,�k�k��,2.2,��
2016/12/02,09:00,1.082,1.812,1.208,2.046,1.402,0.570,1.035,0.960,���쐼,4.5,��
2016/12/02,09:10,1.079,1.811,1.208,2.048,1.401,0.568,1.038,0.959,���k��,6.4,��
2016/12/02,09:20,1.079,1.812,1.211,2.047,1.400,0.570,1.035,0.959,�k��,4.5,��
2016/12/02,09:30,1.080,1.813,1.210,2.048,1.401,0.570,1.035,0.959,��,6.7,��
2016/12/02,09:40,1.077,1.815,1.209,2.050,1.399,0.571,1.034,0.959,��,5.4,��
2016/12/02,09:50,1.078,1.813,1.209,2.051,1.400,0.570,1.034,0.961,���k��,5.7,��
2016/12/02,10:00,1.080,1.819,1.204,2.053,1.401,0.571,1.034,0.959,���k��,9.1,��
2016/12/02,10:10,1.081,1.817,1.203,2.051,1.400,0.574,1.034,0.960,�k��,7.2,��
2016/12/02,10:20,1.082,1.811,1.204,2.053,1.404,0.572,1.035,0.962,�k��,6.8,��
2016/12/02,10:30,1.081,1.815,1.203,2.051,1.405,0.573,1.033,0.959,���k��,7.3,��
2016/12/02,10:40,1.079,1.814,1.205,2.052,1.403,0.572,1.034,0.960,��,3.6,��
2016/12/02,10:50,1.082,1.815,1.206,2.054,1.405,0.571,1.034,0.961,��,6.6,��
2016/12/02,11:00,1.081,1.817,1.207,2.054,1.405,0.571,1.037,0.961,��,5.9,��
2016/12/02,11:10,1.083,1.817,1.206,2.054,1.404,0.572,1.033,0.962,���쐼,6.5,��
2016/12/02,11:20,1.086,1.820,1.206,2.053,1.404,0.571,1.036,0.962,���쐼,9.5,��
2016/12/02,11:30,1.083,1.819,1.208,2.054,1.403,0.573,1.033,0.962,��,8.7,��
2016/12/02,11:40,1.084,1.818,1.210,2.053,1.406,0.572,1.033,0.960,��,7.7,��
2016/12/02,11:50,1.083,1.817,1.213,2.055,1.404,0.573,1.036,0.961,��,6.4,��
2016/12/02,12:00,1.078,1.819,1.213,2.058,1.406,0.573,1.037,0.961,���쐼,6.5,��
2016/12/02,12:10,1.075,1.817,1.216,2.056,1.407,0.572,1.034,0.962,��,6.9,��
2016/12/02,12:20,1.084,1.821,1.212,2.060,1.406,0.572,1.036,0.962,��,7.3,��
2016/12/02,12:30,1.084,1.822,1.214,2.055,1.408,0.572,1.038,0.960,��,11.9,��
2016/12/02,12:40,1.083,1.815,1.217,2.058,1.408,0.573,1.036,0.961,��,10.0,��
2016/12/02,12:50,1.086,1.820,1.210,2.058,1.407,0.573,1.036,0.962,��,8.2,��
2016/12/02,13:00,1.085,1.818,1.213,2.055,1.407,0.573,1.035,0.962,��,9.3,��
2016/12/02,13:10,1.085,1.822,1.214,2.060,1.412,0.572,1.037,0.962,��,9.2,��
2016/12/02,13:20,1.084,1.822,1.214,2.059,1.406,0.573,1.037,0.958,��,9.0,��
2016/12/02,13:30,1.085,1.823,1.215,2.061,1.407,0.575,1.035,0.960,��,9.6,��
2016/12/02,13:40,1.085,1.822,1.213,2.058,1.409,0.574,1.036,0.959,��,7.8,��
2016/12/02,13:50,1.084,1.823,1.215,2.059,1.402,0.574,1.036,0.959,��,6.7,��
2016/12/02,14:00,1.086,1.819,1.216,2.063,1.408,0.575,1.037,0.958,��,7.0,��
2016/12/02,14:10,1.085,1.819,1.217,2.061,1.409,0.575,1.037,0.958,���k��,7.5,��
2016/12/02,14:20,1.085,1.823,1.219,2.065,1.404,0.573,1.037,0.959,��,6.3,��
2016/12/02,14:30,1.089,1.821,1.217,2.061,1.411,0.574,1.038,0.959,��,11.3,��
2016/12/02,14:40,1.089,1.819,1.217,2.062,1.411,0.575,1.037,0.961,��,9.7,��
2016/12/02,14:50,1.090,1.820,1.219,2.062,1.413,0.574,1.037,0.958,��,9.5,��
2016/12/02,15:00,1.088,1.826,1.217,2.059,1.413,0.573,1.038,0.962,��,9.7,��
2016/12/02,15:10,1.088,1.825,1.221,2.064,1.409,0.575,1.036,0.963,��,8.1,��
2016/12/02,15:20,1.088,1.828,1.217,2.061,1.415,0.575,1.035,0.962,��,9.3,��
2016/12/02,15:30,1.088,1.824,1.217,2.063,1.414,0.573,1.037,0.961,��,8.2,��
2016/12/02,15:40,1.086,1.825,1.218,2.061,1.416,0.574,1.037,0.961,��,9.4,��
2016/12/02,15:50,1.088,1.826,1.221,2.061,1.416,0.574,1.035,0.962,��,6.7,��
2016/12/02,16:00,1.086,1.828,1.219,2.064,1.413,0.574,1.037,0.962,��,7.9,��
2016/12/02,16:10,1.087,1.825,1.221,2.065,1.413,0.573,1.037,0.962,��,9.5,��
2016/12/02,16:20,1.086,1.825,1.217,2.064,1.416,0.572,1.039,0.961,��,7.4,��
2016/12/02,16:30,1.087,1.826,1.219,2.063,1.417,0.574,1.039,0.964,��,6.0,��
2016/12/02,16:40,1.087,1.825,1.220,2.064,1.417,0.574,1.040,0.961,��,7.1,��
2016/12/02,16:50,1.085,1.825,1.220,2.062,1.418,0.574,1.038,0.960,��,6.2,��
2016/12/02,17:00,1.086,1.824,1.219,2.062,1.416,0.574,1.038,0.961,��,5.9,��
2016/12/02,17:10,1.086,1.824,1.219,2.063,1.416,0.574,1.039,0.961,��,5.5,��
2016/12/02,17:20,1.087,1.825,1.219,2.062,1.414,0.573,1.038,0.961,��,4.9,��
2016/12/02,17:30,1.087,1.827,1.218,2.060,1.414,0.573,1.038,0.962,��,5.0,��
2016/12/02,17:40,1.083,1.826,1.219,2.062,1.416,0.573,1.038,0.960,��,4.4,��
2016/12/02,17:50,1.086,1.826,1.219,2.062,1.413,0.573,1.036,0.961,��,5.5,��
2016/12/02,18:00,1.086,1.830,1.218,2.063,1.417,0.572,1.037,0.961,��,4.5,��
2016/12/02,18:10,1.084,1.826,1.218,2.061,1.416,0.573,1.038,0.961,���쐼,4.3,��
2016/12/02,18:20,1.086,1.825,1.219,2.063,1.417,0.572,1.039,0.962,��,5.5,��
2016/12/02,18:30,1.085,1.826,1.215,2.062,1.416,0.573,1.037,0.962,��,5.3,��
2016/12/02,18:40,1.087,1.827,1.219,2.059,1.416,0.572,1.037,0.963,��,4.6,��
2016/12/02,18:50,1.085,1.829,1.220,2.063,1.415,0.571,1.036,0.961,��,3.4,��
2016/12/02,19:00,1.085,1.823,1.217,2.063,1.416,0.571,1.038,0.961,���쐼,2.6,��
2016/12/02,19:10,1.086,1.825,1.219,2.060,1.415,0.573,1.038,0.961,��,4.1,��
2016/12/02,19:20,1.085,1.825,1.219,2.063,1.417,0.574,1.040,0.961,���k��,3.9,��
2016/12/02,19:30,1.085,1.824,1.219,2.060,1.415,0.572,1.038,0.960,��,3.5,��
2016/12/02,19:40,1.085,1.822,1.217,2.062,1.415,0.572,1.037,0.960,��,4.1,��
2016/12/02,19:50,1.085,1.825,1.217,2.061,1.416,0.572,1.037,0.960,��,5.4,��
2016/12/02,20:00,1.086,1.826,1.217,2.060,1.415,0.571,1.037,0.962,���k��,4.6,��
2016/12/02,20:10,1.086,1.826,1.217,2.060,1.414,0.572,1.036,0.961,���k��,4.0,��
2016/12/02,20:20,1.086,1.831,1.216,2.062,1.413,0.574,1.036,0.960,��,3.3,��
2016/12/02,20:30,1.087,1.828,1.217,2.060,1.415,0.571,1.038,0.960,��,3.8,��
2016/12/02,20:40,1.085,1.825,1.216,2.058,1.413,0.572,1.037,0.961,���쐼,4.0,��
2016/12/02,20:50,1.083,1.827,1.216,2.057,1.417,0.572,1.037,0.960,��,4.1,��
2016/12/02,21:00,1.086,1.825,1.216,2.059,1.417,0.571,1.038,0.961,��,3.7,��
2016/12/02,21:10,1.085,1.825,1.217,2.061,1.413,0.572,1.037,0.960,��,4.8,��
2016/12/02,21:20,1.085,1.825,1.216,2.061,1.418,0.571,1.038,0.961,���쐼,3.8,��
2016/12/02,21:30,1.085,1.825,1.218,2.061,1.417,0.571,1.038,0.960,���쐼,5.3,��
2016/12/02,21:40,1.084,1.823,1.217,2.058,1.415,0.572,1.038,0.963,���쐼,6.2,��
2016/12/02,21:50,1.086,1.824,1.218,2.060,1.416,0.570,1.038,0.961,���쐼,6.3,��
2016/12/02,22:00,1.082,1.825,1.218,2.061,1.417,0.572,1.039,0.960,���쐼,7.5,��
2016/12/02,22:10,1.083,1.824,1.218,2.064,1.415,0.572,1.037,0.961,���쐼,6.8,��
2016/12/02,22:20,1.083,1.828,1.218,2.065,1.417,0.571,1.038,0.961,��,6.8,��
2016/12/02,22:30,1.082,1.827,1.219,2.060,1.417,0.575,1.040,0.962,���쐼,6.7,��
2016/12/02,22:40,1.084,1.826,1.217,2.059,1.418,0.573,1.040,0.961,���쐼,6.3,��
2016/12/02,22:50,1.083,1.826,1.218,2.061,1.416,0.574,1.039,0.962,��,6.6,��
2016/12/02,23:00,1.084,1.826,1.217,2.064,1.418,0.573,1.039,0.963,���쐼,5.9,��
2016/12/02,23:10,1.084,1.822,1.218,2.060,1.418,0.573,1.039,0.961,���쐼,5.8,��
2016/12/02,23:20,1.083,1.827,1.219,2.065,1.420,0.573,1.038,0.962,���쐼,5.8,��
2016/12/02,23:30,1.084,1.826,1.218,2.066,1.414,0.574,1.041,0.962,�쐼,5.6,��
2016/12/02,23:40,1.086,1.826,1.217,2.061,1.417,0.574,1.039,0.959,���쐼,5.3,��
2016/12/02,23:50,1.085,1.824,1.217,2.061,1.416,0.573,1.038,0.961,�쐼,3.8,��
